Regional Weather Roundup
Issued by NWS

Home | Current Version | Previous Version | Text Only | Print | Product List | Glossary On
Versions: 1 2 3 4 5 6 7 8 9 10 11 12 13 14 15 16 17 18 19 20 21 22 23 24 25 26 27 28 29 30 31 32 33 34 35 36 37 38 39 40 41 42 43 44 45 46 47 48 49 50
949
ASUS43 KMPX 071910
RWRMN
WEATHER ROUNDUP FOR MINNESOTA
NATIONAL WEATHER SERVICE TWIN CITIES/CHANHASSEN MN
100 PM CST WED DEC 07 2016


NOTE: "FAIR" INDICATES FEW OR NO CLOUDS BELOW 12,000 FEET WITH NO
SIGNIFICANT WEATHER AND/OR OBSTRUCTIONS TO VISIBILITY. N/A MEANS
CURRENT SKY AND/OR WEATHER CONDITIONS ARE NOT AVAILABLE.

MNZ060>063-068>070-072000-
   Twin Cities Metro

CITY           SKY/WX    TMP DP  RH WIND       PRES   REMARKS
TWIN CITIES    FLURRIES  20   8  60 W21G28    30.04S WCI   4
ST PAUL        CLOUDY    21  12  68 W17G26    30.05S WCI   7
CRYSTAL        CLOUDY    19   7  59 W18G30    30.03R WCI   4
BLAINE         FLURRIES  19  12  73 W17G25    30.01S WCI   4
LAKEVILLE      FLURRIES  18  10  73 W16G26    30.04F WCI   3
EDEN PRAIRIE   CLOUDY    19   8  62 W21G30    30.04S WCI   3
SOUTH ST PAUL  PTSUNNY   21  10  62 W18G28    30.04S WCI   6
LAKE ELMO      FLURRIES  21  12  68 W20G25    30.02F WCI   6
$$
MNZ001>005-007-008-013>017-022>024-027-028-072000-
   Northwest Minnesota

CITY           SKY/WX    TMP DP  RH WIND       PRES   REMARKS
BEMIDJI        LGT SNOW  16  12  85 W23G31    29.85R WCI  -3
HALLOCK        LGT SNOW  21  19  93 NW24G33   29.91R VSB 1   WCI   4
ROSEAU         LGT SNOW  27  21  80 NW13      29.82R WCI  16
WARROAD        LGT SNOW  25  21  86 NW15      29.80R WCI  12
THIEF RVR FALL LGT SNOW  19  15  84 W18       29.90R FOG     WCI   4
CROOKSTON      LGT SNOW  18  16  93 NW23      29.96R WCI   0
FOSSTON        LGT SNOW  16  10  79 W18G25    29.91R WCI  -1
DETROIT LAKES  LGT SNOW  14  10  85 W17G25    29.98R WCI  -3
MOORHEAD       MIX PCPN  14  10  85 W26       30.04S VSB 3/4 WCI  -6
PARK RAPIDS    LGT SNOW  16   7  67 W21G30    29.90S WCI  -1
$$
MNZ006-009>011-018-025>026-072000-
   North Central Minnesota

CITY           SKY/WX    TMP DP  RH WIND       PRES   REMARKS
BAUDETTE       LGT SNOW  24  20  84 NW16      29.74S VSB 1   WCI  11
FLAG ISLAND    LGT SNOW  25  21  86 NW22      29.77R WCI  10
INTL FALLS     LGT SNOW  25  21  85 W12       29.69S FOG     WCI  14
WASKISH        FLURRIES  21  19  93 W17G24    29.78S WCI   7
BIG FORK       FLURRIES  19  16  86 W10G17    29.76S WCI   8
LONGVILLE      LGT SNOW  18  10  73 W15       29.87R WCI   3
CRANE LAKE     LGT SNOW  23  19  86 SW8       29.70R WCI  14
COOK           LGT SNOW  21  18  86 W15G24    29.72R WCI   8
$$
MNZ012-019>021-037-072000-
   Northeast Minnesota

CITY           SKY/WX    TMP DP  RH WIND       PRES   REMARKS
DULUTH         LGT SNOW  18  11  74 W22G36    29.78R BLWGSNOWWCI   1
ELY            CLOUDY    21  18  86 W17       29.67S WCI   7
HIBBING        MIX PCPN  18  13  80 W10G21    29.76R WCI   6
EVELETH        LGT SNOW  20  14  77 W16G24    29.76R WCI   6
DULUTH HARBOR  FLURRIES  21  14  73 W24G30    29.85S WCI   4
TWO HARBORS    LGT SNOW  21  16  79 W13G23    29.75S WCI   9
SILVER BAY     LGT SNOW  21  16  79 W7        29.72S WCI  13
GRAND MARAIS     N/A     29  22  75 W8G18     29.67R WCI  21
G MARAIS ARPRT MIX PCPN  19  14  79 W10G21    29.59S WCI   8
$$
MNZ029>031-032-039>041-046>048-054>057-064-072000-
   West Central Minnesota

CITY           SKY/WX    TMP DP  RH WIND       PRES   REMARKS
FERGUS FALLS   LGT SNOW  12   9  85 NW26      30.10S VSB 3/4 WCI  -8
WHEATON        FLURRIES  16  10  79 W26G35    30.12S WCI  -3
MORRIS         LGT SNOW  16  10  79 W25G35    30.07S WCI  -3
ALEXANDRIA     LGT SNOW  13   7  77 W23G35    30.02S WCI  -6
ELBOW LAKE     LGT SNOW  13   9  85 NW22G28   30.07R WCI  -6
WADENA         LGT SNOW  12   7  79 W12G24    29.96R WCI  -2
GLENWOOD       LGT SNOW  16  10  79 W26G36    30.03S VSB 1   WCI  -3
APPLETON       CLOUDY    19   9  63 NW26G35   30.10F WCI   1
BENSON         FLURRIES  18   9  68 NW26G32   30.08F WCI  -1
ORTONVILLE     CLOUDY    18   7  62 W24G33    30.11S WCI   0
MADISON        CLOUDY    19   9  63 W29G36    30.14S WCI   1
WILLMAR        CLOUDY    19  12  73 W21G26    30.08S WCI   3
$$
MNZ033>034-036-042>043-049>051-058-059-072000-
   Central Minnesota

CITY           SKY/WX    TMP DP  RH WIND       PRES   REMARKS
ST CLOUD       FLURRIES  17   8  67 W24G32    30.01S WCI  -1
PAYNESVILLE    FLURRIES  17   9  72 W20G28    30.04F WCI   0
AITKIN         MIX PCPN  19   9  63 W12G23    29.89R WCI   7
PINE RIVER     CLOUDY    16   9  73 W10G23    29.94R WCI   3
BRAINERD       CLOUDY    16   8  71 W21G26    29.94R WCI  -1
STAPLES        LGT SNOW  14   9  79 W18G24    29.96R WCI  -3
LONG PRAIRIE   CLOUDY    14   9  79 SW16G31   30.00S HAZE    WCI  -2
LITTLE FALLS   CLOUDY    18   9  68 W13G25    29.99S WCI   4
LITCHFIELD     FLURRIES  18  10  73 W17G26    30.05S WCI   2
BUFFALO        CLOUDY    18   9  67 W16G26    30.05S WCI   4
MAPLE LAKE     PTSUNNY   20  11  69 W18       30.04S WCI   4
HUTCHINSON     CLOUDY    19  11  71 W23G31    30.07S WCI   2
$$
MNZ037-044-045-052-053-072000-
   East Central Minnesota

CITY           SKY/WX    TMP DP  RH WIND       PRES   REMARKS
PRINCETON      FLURRIES  21  10  63 SW14G22   29.99R WCI   8
MORA           FLURRIES  19  10  68 W15G22    29.97S WCI   5
CAMBRIDGE      CLOUDY    21  10  63 W12G23    29.96F WCI   9
RUSH CITY      CLOUDY    19  10  68 W15G25    29.97S WCI   5
MOOSE LAKE     CLOUDY    19  10  68 W18G25    29.87S WCI   4
HINCKLEY       CLOUDY    21  12  68 W18G29    29.93S WCI   6
CLOQUET        FLURRIES  18   9  68 SW17G26   29.82R WCI   2
MCGREGOR       CLOUDY    19  10  68 W13G22    29.88S WCI   7
$$
MNZ071>073-080-081-089-090-097-098-072000-
   Southwest Minnesota

CITY           SKY/WX    TMP DP  RH WIND       PRES   REMARKS
MONTEVIDEO     CLOUDY    19   9  63 NW17G28   30.13S WCI   4
GRANITE FALLS  CLOUDY    20  10  66 W30G36    30.15R WCI   1
CANBY          PTSUNNY   18   8  64 NW25G36   30.15F WCI   0
MARSHALL       PTSUNNY   18   8  65 W33G39    30.12F WCI  -2
REDWOOD FALLS  CLOUDY    20   6  55 NW26G39   30.10F WCI   2
OLIVIA         PTSUNNY   21  10  63 W24G30    30.08F WCI   4
PIPESTONE      SUNNY     16   7  67 NW21G31   30.14S WCI  -2
WINDOM         MOSUNNY   21   9  58 W29G35    30.11S WCI   3
WORTHINGTON    SUNNY     18   9  68 W26G35    30.14R WCI  -1
JACKSON        PTSUNNY   19   9  63 W24G32    30.12S WCI   2
TRACY          SUNNY     20  10  66 NW23G29   30.13S WCI   3
SLAYTON        SUNNY     18   9  69 W25G33    30.12F WCI  -1
$$
MNZ065>067-074>077-082>085-091>093-072000-
   South Central Minnesota

CITY           SKY/WX    TMP DP  RH WIND       PRES   REMARKS
MANKATO        PTSUNNY   19   9  65 W22G28    30.09S WCI   2
NEW ULM        CLOUDY    19   9  63 W25G35    30.10S WCI   2
ST JAMES       MOSUNNY   21  10  63 W26G33    30.11F WCI   4
FAIRMONT       CLOUDY    21  11  65 W23G30    30.12F WCI   5
GLENCOE        CLOUDY    19  13  76 W21G26    30.07S WCI   3
FARIBAULT      FLURRIES  18  10  73 W17G24    30.07F WCI   2
OWATONNA       FLURRIES  18  10  73 W21G28    30.07S WCI   1
WASECA         CLOUDY    19  12  73 W18G25    30.09F WCI   4
ALBERT LEA     CLOUDY    21  12  68 W15G23    30.07F WCI   8
$$
MNZ078>079-086>088-094>096-072000-
   Southeast Minnesota

CITY           SKY/WX    TMP DP  RH WIND       PRES   REMARKS
ROCHESTER      CLOUDY    17  11  77 W17       30.03F WCI   1
RED WING       CLOUDY    21   9  58 W18G24    30.03S WCI   6
STANTON        CLOUDY    20  11  66 W20G26    30.05F WCI   5
DODGE CENTER   LGT SNOW  18  10  73 W20       30.04F WCI   1
WINONA         CLOUDY    23  12  63 NW7       30.07F WCI  15
AUSTIN         CLOUDY    18  10  73 W18G25    30.06F WCI   2
PRESTON        LGT SNOW  17  11  77 W16G23    30.06S WCI   1
$$
ABBREVIATIONS USED IN REMARKS
   TC - TEMPERATURES IN CELSIUS
  WCI - WIND CHILL INDEX
   HX - HEAT INDEX
  VSB - VISIBILITY
$$




USA.gov is the U.S. government's official web portal to all federal, state and local government web resources and services.